Location: Croisilles
(50.1998°N, 2.8793°E)
Time: 20:07:30
(UTC+00:00)

Nadezhda 4 Rocket - Pass Details

Date: 21 January 2021
Orbit: 949 x 993 km, 83.0° (Epoch: 02 March)

Event Time Altitude Azimuth Distance (km) Brightness Sun altitude
Rises 17:34:19 0° 165° (SSE) 3,674 7.1 -11.1°
Reaches altitude 10° 17:36:56 10° 160° (SSE) 2,724 6.3 -11.5°
Maximum altitude 17:42:48 45° 90° (E) 1,308 4.3 -12.4°
Drops below altitude 10° 17:48:38 10° 20° (NNE) 2,713 6.0 -13.3°
Sets 17:51:13 0° 14° (NNE) 3,658 6.7 -13.7°
